CFE74H EGPH-EGLC

Flight info

Callsign CFE74H
Flight time N/A
Altitude 37000
Route GOSAM P600 FENIK L612 LISTO
Aircraft E190/M-SDE3GILORVW/S

Departure

Time 2026-05-04 18:26
Airport Edinburgh Airport (EGPH)

Arrival

Time N/A
Airport London City Airport (EGLC)
Time Latitude Longitude Altitude Speed Heading
2026-05-04 17:57 55.94907 -3.36495 101 ft 0 kts 150°
2026-05-04 18:14 55.94906 -3.36495 103 ft 0 kts 150°
2026-05-04 18:15 55.94915 -3.36504 103 ft 2 kts 150°
2026-05-04 18:15 55.94941 -3.36530 103 ft 1 kts 150°
2026-05-04 18:15 55.94948 -3.36539 103 ft 2 kts 134°
2026-05-04 18:16 55.94954 -3.36563 103 ft 2 kts 91°
2026-05-04 18:16 55.94952 -3.36584 103 ft 1 kts 58°
2026-05-04 18:16 55.94951 -3.36586 103 ft 0 kts 58°
2026-05-04 18:18 55.94951 -3.36585 103 ft 0 kts 58°
2026-05-04 18:19 55.94960 -3.36558 103 ft 2 kts 59°
2026-05-04 18:19 55.94969 -3.36532 103 ft 2 kts 60°
2026-05-04 18:19 55.94985 -3.36483 103 ft 8 kts 59°
2026-05-04 18:20 55.95024 -3.36392 103 ft 9 kts 26°
2026-05-04 18:20 55.95084 -3.36395 103 ft 8 kts 23°
2026-05-04 18:20 55.95124 -3.36308 103 ft 9 kts 58°
2026-05-04 18:20 55.95159 -3.36204 103 ft 10 kts 59°
2026-05-04 18:21 55.95197 -3.36092 103 ft 10 kts 59°
2026-05-04 18:21 55.95237 -3.35975 103 ft 11 kts 59°
2026-05-04 18:21 55.95279 -3.35851 103 ft 12 kts 59°
2026-05-04 18:21 55.95322 -3.35724 103 ft 12 kts 59°
2026-05-04 18:22 55.95369 -3.35586 102 ft 13 kts 59°
2026-05-04 18:22 55.95415 -3.35451 102 ft 8 kts 58°
2026-05-04 18:22 55.95454 -3.35404 102 ft 7 kts 358°
2026-05-04 18:22 55.95487 -3.35432 102 ft 2 kts 328°
2026-05-04 18:23 55.95497 -3.35443 101 ft 0 kts 328°
2026-05-04 18:23 55.95498 -3.35444 101 ft 1 kts 328°
2026-05-04 18:23 55.95526 -3.35474 100 ft 8 kts 331°
2026-05-04 18:24 55.95569 -3.35546 100 ft 8 kts 277°
2026-05-04 18:24 55.95564 -3.35579 100 ft 0 kts 241°
2026-05-04 18:25 55.95502 -3.35763 100 ft 56 kts 239°
2026-05-04 18:25 55.95142 -3.36824 101 ft 140 kts 240°
2026-05-04 18:26 55.94620 -3.38390 842 ft 152 kts 242°
2026-05-04 18:26 55.94096 -3.39981 1824 ft 155 kts 243°
2026-05-04 18:26 55.93549 -3.41556 2777 ft 153 kts 243°
2026-05-04 18:26 55.92948 -3.43295 3253 ft 180 kts 242°
2026-05-04 18:27 55.92240 -3.45330 3717 ft 209 kts 242°
2026-05-04 18:27 55.91406 -3.47719 4029 ft 248 kts 241°
2026-05-04 18:27 55.90546 -3.50499 4604 ft 263 kts 256°
2026-05-04 18:27 55.90182 -3.53668 5495 ft 267 kts 262°
2026-05-04 18:28 55.89856 -3.56907 6485 ft 268 kts 262°
2026-05-04 18:28 55.89532 -3.60142 7475 ft 268 kts 262°
2026-05-04 18:28 55.89209 -3.63373 8425 ft 268 kts 262°
2026-05-04 18:28 55.88882 -3.66619 9319 ft 269 kts 261°
2026-05-04 18:29 55.88555 -3.69871 10164 ft 272 kts 261°
2026-05-04 18:29 55.88220 -3.73197 10834 ft 280 kts 261°
2026-05-04 18:29 55.87770 -3.76632 11262 ft 297 kts 248°
2026-05-04 18:29 55.86416 -3.79553 11828 ft 316 kts 217°
2026-05-04 18:30 55.82059 -3.80390 13300 ft 339 kts 166°
2026-05-04 18:30 55.79981 -3.78267 14018 ft 348 kts 141°
2026-05-04 18:30 55.78102 -3.75584 14742 ft 352 kts 152°
2026-05-04 18:31 55.75872 -3.73796 15539 ft 353 kts 164°
2026-05-04 18:31 55.73525 -3.72539 16371 ft 355 kts 168°
2026-05-04 18:31 55.71151 -3.71487 17188 ft 358 kts 170°
2026-05-04 18:31 55.68722 -3.70497 17977 ft 361 kts 171°
2026-05-04 18:32 55.66252 -3.69523 18727 ft 366 kts 171°
2026-05-04 18:32 55.63771 -3.68560 19479 ft 370 kts 171°
2026-05-04 18:32 55.61285 -3.67600 20223 ft 374 kts 171°
2026-05-04 18:32 55.58752 -3.66623 20981 ft 377 kts 171°
2026-05-04 18:33 55.56180 -3.65635 21737 ft 380 kts 171°
2026-05-04 18:33 55.53618 -3.64652 22456 ft 383 kts 171°
2026-05-04 18:33 55.51007 -3.63651 23154 ft 386 kts 171°
2026-05-04 18:33 55.48358 -3.62637 23831 ft 390 kts 171°
2026-05-04 18:34 55.45708 -3.61624 24480 ft 394 kts 171°
2026-05-04 18:34 55.43055 -3.60611 25111 ft 398 kts 170°
2026-05-04 18:34 55.40333 -3.59574 25735 ft 402 kts 170°
2026-05-04 18:34 55.37589 -3.58530 26361 ft 406 kts 170°
2026-05-04 18:35 55.34842 -3.57485 26961 ft 410 kts 170°
2026-05-04 18:35 55.32052 -3.56426 27544 ft 414 kts 170°
2026-05-04 18:35 55.29216 -3.55352 28128 ft 418 kts 170°
2026-05-04 18:35 55.26368 -3.54274 28694 ft 422 kts 170°
2026-05-04 18:36 55.23490 -3.53186 29230 ft 427 kts 170°
2026-05-04 18:36 55.20536 -3.52072 29784 ft 431 kts 170°
2026-05-04 18:36 55.17608 -3.50968 30323 ft 435 kts 170°
2026-05-04 18:36 55.14615 -3.49843 30852 ft 438 kts 170°
2026-05-04 18:37 55.11661 -3.48733 31358 ft 442 kts 170°
2026-05-04 18:37 55.08629 -3.47596 31865 ft 446 kts 169°
2026-05-04 18:37 55.05638 -3.46475 32405 ft 447 kts 169°
2026-05-04 18:37 55.02607 -3.45342 33077 ft 446 kts 169°
2026-05-04 18:38 54.99597 -3.44219 33783 ft 444 kts 169°
2026-05-04 18:38 54.96605 -3.43103 34475 ft 441 kts 169°
2026-05-04 18:38 54.93611 -3.41989 35094 ft 439 kts 169°
2026-05-04 18:38 54.90649 -3.40889 35655 ft 437 kts 169°
2026-05-04 18:39 54.87699 -3.39794 36156 ft 435 kts 169°
2026-05-04 18:39 54.84748 -3.38701 36628 ft 434 kts 169°
2026-05-04 18:39 54.81782 -3.37603 36998 ft 428 kts 169°
2026-05-04 18:40 54.75850 -3.35414 37036 ft 447 kts 168°
2026-05-04 18:40 54.69881 -3.32382 37037 ft 452 kts 157°
2026-05-04 18:41 54.64112 -3.27995 37021 ft 452 kts 157°
2026-05-04 18:41 54.58372 -3.23688 37022 ft 450 kts 157°
2026-05-04 18:42 54.52657 -3.19417 37016 ft 451 kts 157°
2026-05-04 18:42 54.47560 -3.15621 37012 ft 450 kts 156°
2026-05-04 18:43 54.41777 -3.11327 37019 ft 450 kts 156°
2026-05-04 18:43 54.36022 -3.07066 37024 ft 449 kts 156°
2026-05-04 18:44 54.30320 -3.02858 37029 ft 448 kts 156°
2026-05-04 18:44 54.24647 -2.98684 37035 ft 447 kts 156°
2026-05-04 18:45 54.18941 -2.94497 37043 ft 448 kts 156°
2026-05-04 18:45 54.13234 -2.90324 37046 ft 446 kts 156°
2026-05-04 18:46 54.07550 -2.86179 37039 ft 446 kts 156°
2026-05-04 18:46 54.01879 -2.82056 37039 ft 444 kts 156°
2026-05-04 18:47 53.96190 -2.77929 37038 ft 444 kts 156°
2026-05-04 18:47 53.90542 -2.73844 37022 ft 444 kts 156°
2026-05-04 18:48 53.84856 -2.69746 37039 ft 445 kts 156°
2026-05-04 18:48 53.79190 -2.65676 37028 ft 445 kts 155°
2026-05-04 18:49 53.73527 -2.61619 37029 ft 445 kts 155°
2026-05-04 18:49 53.67873 -2.57580 37032 ft 444 kts 155°
2026-05-04 18:50 53.62180 -2.53525 37044 ft 444 kts 155°
2026-05-04 18:50 53.56509 -2.49498 37042 ft 444 kts 155°
2026-05-04 18:51 53.50857 -2.45495 37030 ft 443 kts 155°
2026-05-04 18:51 53.45176 -2.41484 37035 ft 442 kts 155°
2026-05-04 18:52 53.39512 -2.37497 37032 ft 442 kts 155°
2026-05-04 18:52 53.33847 -2.33520 37033 ft 442 kts 156°
2026-05-04 18:53 53.28196 -2.29564 37043 ft 442 kts 156°